User: anonymous
Location: Unspecified
(0.0000°N, 0.0000°E)
Time: 01:17:45
(UTC+00:00)
Language:

Vanguard 3 - Orbit

View from above orbital plane
View from above orbital plane
View from above satellite
View from above satellite

Ground track
Ground track

The orbit data is extracted from the following two-line orbital elements,

1 00020U 59007A   14210.55305958  .00000270  00000-0  11621-3 0  5406
2 00020 033.3418 275.5944 1674631 030.3780 338.3990 11.54002061981947
Epoch (UTC): 29 July 2014 13:16:24
Eccentricity: 0.1674631
inclination: 33.3418°
perigee height: 508 km
apogee height: 3279 km
right ascension of ascending node: 275.5944°
argument of perigee: 30.3780°
revolutions per day: 11.54002061
mean anomaly at epoch: 338.3990°
orbit number at epoch: 98194

The dashed part of the orbit path shows where the satellite is in the earth's shadow,  

DLR